This is the latest recevied weather packets stored in our database for station/object DK6MR-13. If no packets are shown the sender has not sent any weather packets the latest 10 day(s).
| Time | Temp. | Humidity | Pressure | Rain* | Wind** | Luminosity | Snow |
|---|---|---|---|---|---|---|---|
| 1777982977 | 17.22° C | 76% | 1006.1 hPa | 0 mm | - | - | - |
| 1777982076 | 17.22° C | 73% | 1006.4 hPa | 0 mm | - | - | - |
| 1777981175 | 17.22° C | 73% | 1006.4 hPa | 0 mm | - | - | - |
| 1777980274 | 17.22° C | 76% | 1006.4 hPa | 0 mm | - | - | - |
| 1777979372 | 16.67° C | 75% | 1006.4 hPa | 0 mm | - | - | - |
| 1777978472 | 16.67° C | 80% | 1006.7 hPa | 0 mm | - | - | - |
| 1777977570 | 15.56° C | 85% | 1007.1 hPa | 0 mm | - | - | - |
| 1777976675 | 15° C | 86% | 1007.1 hPa | 0 mm | - | - | - |
| 1777975768 | 15° C | 86% | 1007.1 hPa | 0 mm | - | - | - |
| 1777974868 | 15.56° C | 87% | 1007.1 hPa | 0 mm | - | - | - |
| 1777973967 | 15.56° C | 86% | 1007.1 hPa | 0 mm | - | - | - |
| 1777973067 | 15° C | 88% | 1007.4 hPa | 0 mm | - | - | - |
| 1777972166 | 15° C | 89% | 1007.4 hPa | 0 mm | - | - | - |
| 1777971265 | 15° C | 90% | 1007.4 hPa | 0 mm | - | - | - |
| 1777970364 | 15° C | 90% | 1007.4 hPa | 0 mm | - | - | - |
| 1777969463 | 15° C | 91% | 1007.4 hPa | 0 mm | - | - | - |
| 1777968562 | 15° C | 91% | 1007.4 hPa | 0 mm | - | - | - |
| 1777967662 | 14.44° C | 92% | 1007.4 hPa | 0 mm | - | - | - |
| 1777966761 | 14.44° C | 92% | 1007.4 hPa | 0 mm | - | - | - |
| 1777965860 | 14.44° C | 93% | 1007.8 hPa | 0 mm | - | - | - |
| 1777964959 | 14.44° C | 93% | 1007.8 hPa | 0 mm | - | - | - |
| 1777964059 | 14.44° C | 93% | 1007.8 hPa | 0 mm | - | - | - |
| 1777963158 | 14.44° C | 93% | 1008.1 hPa | 0 mm | - | - | - |
| 1777962257 | 13.89° C | 93% | 1007.8 hPa | 0 mm | - | - | - |
| 1777961356 | 13.89° C | 93% | 1008.1 hPa | 0 mm | - | - | - |
* Rain latest hour (hover to see other rain measurements)
** Current wind speed in m/s (hover to see current wind gust speed)